Time,TemperatureF,DewpointF,PressureIn,WindDirection,WindDirectionDegrees,WindSpeedMPH,WindSpeedGustMPH,Humidity,HourlyPrecipIn,Conditions,Clouds,dailyrainin,SoftwareType,DateUTC
2013-03-30 00:02:00,51.0,40.0,30.22,NE,37,2.0,5.0,67,0.00,,,0.00,,2013-03-30 04:02:00,
2013-03-30 00:13:00,51.0,40.0,30.22,NE,37,2.0,5.0,67,0.00,,,0.00,,2013-03-30 04:13:00,
2013-03-30 00:23:00,51.0,40.0,30.22,ENE,57,1.0,5.0,67,0.00,,,0.00,,2013-03-30 04:23:00,
2013-03-30 00:33:00,50.0,40.0,30.22,NE,35,1.0,6.0,68,0.00,,,0.00,,2013-03-30 04:33:00,
2013-03-30 00:43:00,50.0,40.0,30.22,NE,35,1.0,6.0,68,0.00,,,0.00,,2013-03-30 04:43:00,
2013-03-30 00:52:00,50.0,40.0,30.22,East,84,0.0,3.0,69,0.00,,,0.00,,2013-03-30 04:52:00,
2013-03-30 01:02:00,50.0,40.0,30.22,East,84,0.0,3.0,69,0.00,,,0.00,,2013-03-30 05:02:00,
2013-03-30 01:12:00,50.0,40.0,30.22,East,84,0.0,3.0,69,0.00,,,0.00,,2013-03-30 05:12:00,
2013-03-30 01:22:00,49.0,41.0,30.22,ENE,76,1.0,3.0,73,0.00,,,0.00,,2013-03-30 05:22:00,
2013-03-30 01:32:00,49.0,41.0,30.22,ENE,76,1.0,3.0,75,0.00,,,0.00,,2013-03-30 05:32:00,
2013-03-30 01:42:00,49.0,41.0,30.22,ENE,76,1.0,3.0,75,0.00,,,0.00,,2013-03-30 05:42:00,
2013-03-30 01:52:00,49.0,42.0,30.22,ENE,76,0.0,2.0,77,0.00,,,0.00,,2013-03-30 05:52:00,
2013-03-30 02:02:00,48.0,41.0,30.22,ENE,76,0.0,2.0,78,0.00,,,0.00,,2013-03-30 06:02:00,
2013-03-30 02:12:00,48.0,41.0,30.22,ENE,76,0.0,2.0,78,0.00,,,0.00,,2013-03-30 06:12:00,
2013-03-30 02:23:00,48.0,42.0,30.21,ENE,76,0.0,3.0,79,0.00,,,0.00,,2013-03-30 06:23:00,
2013-03-30 02:32:00,48.0,41.0,30.22,ENE,72,0.0,4.0,78,0.00,,,0.00,,2013-03-30 06:32:00,
2013-03-30 02:42:00,48.0,41.0,30.22,ENE,72,0.0,4.0,78,0.00,,,0.00,,2013-03-30 06:42:00,
2013-03-30 02:52:00,48.0,43.0,30.21,ENE,71,0.0,2.0,82,0.00,,,0.00,,2013-03-30 06:52:00,
2013-03-30 03:02:00,48.0,43.0,30.20,East,84,1.0,5.0,82,0.00,,,0.00,,2013-03-30 07:02:00,
2013-03-30 03:12:00,48.0,43.0,30.20,East,84,1.0,5.0,82,0.00,,,0.00,,2013-03-30 07:12:00,
2013-03-30 03:22:00,48.0,42.0,30.20,East,94,1.0,5.0,80,0.00,,,0.00,,2013-03-30 07:22:00,
2013-03-30 03:32:00,48.0,42.0,30.19,ENE,60,2.0,4.0,80,0.00,,,0.00,,2013-03-30 07:32:00,
2013-03-30 03:42:00,48.0,42.0,30.19,ENE,60,2.0,4.0,80,0.00,,,0.00,,2013-03-30 07:42:00,
2013-03-30 03:52:00,48.0,42.0,30.19,East,89,0.0,2.0,80,0.00,,,0.00,,2013-03-30 07:52:00,
2013-03-30 04:02:00,47.0,42.0,30.19,ENE,64,0.0,4.0,83,0.00,,,0.00,,2013-03-30 08:02:00,
2013-03-30 04:12:00,47.0,42.0,30.19,ENE,64,0.0,4.0,83,0.00,,,0.00,,2013-03-30 08:12:00,
2013-03-30 04:22:00,47.0,42.0,30.19,ENE,64,1.0,2.0,84,0.00,,,0.00,,2013-03-30 08:22:00,
2013-03-30 04:32:00,47.0,42.0,30.19,ENE,64,0.0,2.0,84,0.00,,,0.00,,2013-03-30 08:32:00,
2013-03-30 04:42:00,47.0,42.0,30.19,ENE,64,0.0,2.0,84,0.00,,,0.00,,2013-03-30 08:42:00,
2013-03-30 04:53:00,46.0,42.0,30.19,ENE,64,0.0,2.0,87,0.00,,,0.00,,2013-03-30 08:53:00,
2013-03-30 05:02:00,46.0,43.0,30.18,ENE,64,0.0,1.0,88,0.00,,,0.00,,2013-03-30 09:02:00,
2013-03-30 05:12:00,46.0,43.0,30.18,ENE,64,0.0,1.0,88,0.00,,,0.00,,2013-03-30 09:12:00,
2013-03-30 05:22:00,46.0,42.0,30.18,ENE,64,1.0,2.0,87,0.00,,,0.00,,2013-03-30 09:22:00,
2013-03-30 05:43:00,47.0,43.0,30.19,SSE,157,1.0,4.0,86,0.00,,,0.00,,2013-03-30 09:43:00,
2013-03-30 05:54:00,46.0,42.0,30.20,SSE,157,1.0,2.0,86,0.00,,,0.00,,2013-03-30 09:54:00,
2013-03-30 06:03:00,47.0,43.0,30.19,SSE,157,1.0,3.0,86,0.00,,,0.00,,2013-03-30 10:03:00,
2013-03-30 06:13:00,47.0,43.0,30.19,SSE,157,1.0,3.0,86,0.00,,,0.00,,2013-03-30 10:13:00,
2013-03-30 06:23:00,46.0,42.0,30.19,SSE,157,0.0,3.0,86,0.00,,,0.00,,2013-03-30 10:23:00,
2013-03-30 06:33:00,46.0,43.0,30.18,SSE,157,0.0,3.0,88,0.00,,,0.00,,2013-03-30 10:33:00,
2013-03-30 06:42:00,46.0,43.0,30.18,SSE,157,0.0,3.0,88,0.00,,,0.00,,2013-03-30 10:42:00,
2013-03-30 06:53:00,46.0,43.0,30.18,NNE,19,1.0,3.0,88,0.00,,,0.00,,2013-03-30 10:53:00,
2013-03-30 07:03:00,46.0,43.0,30.19,North,5,1.0,3.0,88,0.00,,,0.00,,2013-03-30 11:03:00,
2013-03-30 07:12:00,46.0,43.0,30.19,North,5,1.0,3.0,88,0.00,,,0.00,,2013-03-30 11:12:00,
2013-03-30 07:23:00,45.0,42.0,30.19,ESE,104,0.0,2.0,89,0.00,,,0.00,,2013-03-30 11:23:00,
2013-03-30 07:33:00,45.0,42.0,30.19,ESE,104,1.0,2.0,90,0.00,,,0.00,,2013-03-30 11:33:00,
2013-03-30 07:42:00,45.0,42.0,30.19,ESE,104,1.0,2.0,90,0.00,,,0.00,,2013-03-30 11:42:00,
2013-03-30 07:53:00,46.0,43.0,30.18,ESE,104,0.0,2.0,89,0.00,,,0.00,,2013-03-30 11:53:00,
2013-03-30 08:02:00,46.0,43.0,30.19,ESE,104,1.0,3.0,88,0.00,,,0.00,,2013-03-30 12:02:00,
2013-03-30 08:13:00,46.0,43.0,30.19,ESE,104,1.0,3.0,88,0.00,,,0.00,,2013-03-30 12:13:00,
2013-03-30 08:23:00,46.0,43.0,30.20,ESE,103,1.0,3.0,88,0.00,,,0.00,,2013-03-30 12:23:00,
2013-03-30 08:32:00,47.0,44.0,30.20,ESE,102,0.0,2.0,88,0.00,,,0.00,,2013-03-30 12:32:00,
2013-03-30 08:42:00,47.0,44.0,30.20,ESE,102,0.0,2.0,88,0.00,,,0.00,,2013-03-30 12:42:00,
2013-03-30 08:53:00,47.0,43.0,30.20,ESE,102,1.0,4.0,87,0.00,,,0.00,,2013-03-30 12:53:00,
2013-03-30 09:02:00,47.0,43.0,30.20,East,98,2.0,6.0,86,0.00,,,0.00,,2013-03-30 13:02:00,
2013-03-30 09:12:00,47.0,43.0,30.20,East,98,2.0,6.0,86,0.00,,,0.00,,2013-03-30 13:12:00,
2013-03-30 09:23:00,48.0,43.0,30.20,ENE,67,4.0,8.0,84,0.00,,,0.00,,2013-03-30 13:23:00,
2013-03-30 09:32:00,49.0,44.0,30.20,ESE,113,2.0,7.0,83,0.00,,,0.00,,2013-03-30 13:32:00,
2013-03-30 09:43:00,49.0,44.0,30.20,ESE,113,2.0,7.0,83,0.00,,,0.00,,2013-03-30 13:43:00,
2013-03-30 09:53:00,50.0,44.0,30.20,SE,125,4.0,8.0,81,0.00,,,0.00,,2013-03-30 13:53:00,
2013-03-30 10:03:00,51.0,45.0,30.20,ESE,122,2.0,6.0,79,0.00,,,0.00,,2013-03-30 14:03:00,
2013-03-30 10:12:00,51.0,45.0,30.20,ESE,122,2.0,6.0,79,0.00,,,0.00,,2013-03-30 14:12:00,
2013-03-30 10:23:00,53.0,46.0,30.20,ESE,121,2.0,5.0,76,0.00,,,0.00,,2013-03-30 14:23:00,
2013-03-30 10:32:00,53.0,46.0,30.20,SSE,163,3.0,6.0,76,0.00,,,0.00,,2013-03-30 14:32:00,
2013-03-30 10:42:00,53.0,46.0,30.20,SSE,163,3.0,6.0,76,0.00,,,0.00,,2013-03-30 14:42:00,
2013-03-30 10:53:00,54.0,45.0,30.20,East,89,3.0,8.0,72,0.00,,,0.00,,2013-03-30 14:53:00,
2013-03-30 11:03:00,55.0,46.0,30.19,East,94,2.0,5.0,71,0.00,,,0.00,,2013-03-30 15:03:00,
2013-03-30 11:12:00,55.0,46.0,30.19,East,94,2.0,5.0,71,0.00,,,0.00,,2013-03-30 15:12:00,
2013-03-30 11:23:00,55.0,43.0,30.19,ESE,119,3.0,9.0,64,0.00,,,0.00,,2013-03-30 15:23:00,
2013-03-30 11:34:00,56.0,46.0,30.19,SSE,157,3.0,6.0,68,0.00,,,0.00,,2013-03-30 15:34:00,
2013-03-30 11:43:00,56.0,46.0,30.19,SSE,157,3.0,6.0,68,0.00,,,0.00,,2013-03-30 15:43:00,
2013-03-30 11:53:00,57.0,44.0,30.19,SSE,153,1.0,5.0,61,0.00,,,0.00,,2013-03-30 15:53:00,
2013-03-30 12:03:00,57.0,44.0,30.19,SSE,153,1.0,5.0,61,0.00,,,0.00,,2013-03-30 16:03:00,
2013-03-30 12:13:00,58.0,42.0,30.18,SE,145,2.0,10.0,55,0.00,,,0.00,,2013-03-30 16:13:00,
2013-03-30 12:23:00,58.0,42.0,30.18,SE,145,2.0,10.0,55,0.00,,,0.00,,2013-03-30 16:23:00,
2013-03-30 12:33:00,59.0,43.0,30.18,ESE,119,2.0,6.0,55,0.00,,,0.00,,2013-03-30 16:33:00,
2013-03-30 12:43:00,59.0,43.0,30.18,ESE,119,2.0,6.0,55,0.00,,,0.00,,2013-03-30 16:43:00,
2013-03-30 12:53:00,60.0,43.0,30.17,NNE,12,4.0,6.0,54,0.00,,,0.00,,2013-03-30 16:53:00,
2013-03-30 13:02:00,60.0,42.0,30.16,ESE,118,5.0,10.0,52,0.00,,,0.00,,2013-03-30 17:02:00,
2013-03-30 13:13:00,60.0,42.0,30.16,ESE,118,5.0,10.0,52,0.00,,,0.00,,2013-03-30 17:13:00,
2013-03-30 13:23:00,60.0,43.0,30.15,North,355,2.0,5.0,54,0.00,,,0.00,,2013-03-30 17:23:00,
2013-03-30 13:32:00,60.0,43.0,30.15,NE,49,2.0,7.0,53,0.00,,,0.00,,2013-03-30 17:32:00,
2013-03-30 13:42:00,60.0,43.0,30.15,NE,49,2.0,7.0,53,0.00,,,0.00,,2013-03-30 17:42:00,
2013-03-30 13:53:00,61.0,42.0,30.15,South,170,2.0,5.0,50,0.00,,,0.00,,2013-03-30 17:53:00,
2013-03-30 14:03:00,63.0,43.0,30.14,West,281,3.0,7.0,48,0.00,,,0.00,,2013-03-30 18:03:00,
2013-03-30 14:13:00,62.0,42.0,30.14,SSW,202,0.0,5.0,48,0.00,,,0.00,,2013-03-30 18:13:00,
2013-03-30 14:22:00,62.0,42.0,30.14,SSW,202,0.0,5.0,48,0.00,,,0.00,,2013-03-30 18:22:00,
2013-03-30 14:33:00,63.0,41.0,30.13,WSW,238,2.0,6.0,45,0.00,,,0.00,,2013-03-30 18:33:00,
2013-03-30 14:42:00,63.0,41.0,30.13,WSW,238,2.0,6.0,45,0.00,,,0.00,,2013-03-30 18:42:00,
2013-03-30 14:53:00,64.0,43.0,30.12,West,279,2.0,5.0,46,0.00,,,0.00,,2013-03-30 18:53:00,
2013-03-30 15:03:00,63.0,42.0,30.12,SSE,166,1.0,9.0,46,0.00,,,0.00,,2013-03-30 19:03:00,
2013-03-30 15:13:00,63.0,42.0,30.12,SSE,166,1.0,9.0,46,0.00,,,0.00,,2013-03-30 19:13:00,
2013-03-30 15:22:00,65.0,43.0,30.11,SSW,198,4.0,8.0,44,0.00,,,0.00,,2013-03-30 19:22:00,
2013-03-30 15:32:00,67.0,44.0,30.11,West,274,2.0,6.0,43,0.00,,,0.00,,2013-03-30 19:32:00,
2013-03-30 15:42:00,67.0,44.0,30.11,West,274,2.0,6.0,43,0.00,,,0.00,,2013-03-30 19:42:00,
2013-03-30 15:53:00,65.0,42.0,30.10,NE,36,1.0,6.0,43,0.00,,,0.00,,2013-03-30 19:53:00,
2013-03-30 16:02:00,67.0,42.0,30.09,NW,321,2.0,8.0,40,0.00,,,0.00,,2013-03-30 20:02:00,
2013-03-30 16:12:00,67.0,42.0,30.09,NW,321,2.0,8.0,40,0.00,,,0.00,,2013-03-30 20:12:00,
2013-03-30 16:22:00,66.0,42.0,30.09,NNW,332,3.0,5.0,42,0.00,,,0.00,,2013-03-30 20:22:00,
2013-03-30 16:33:00,67.0,42.0,30.08,WNW,288,1.0,7.0,40,0.00,,,0.00,,2013-03-30 20:33:00,
2013-03-30 16:42:00,67.0,42.0,30.08,WNW,288,1.0,7.0,40,0.00,,,0.00,,2013-03-30 20:42:00,
2013-03-30 16:53:00,67.0,42.0,30.07,WSW,252,3.0,7.0,40,0.00,,,0.00,,2013-03-30 20:53:00,
2013-03-30 17:02:00,67.0,43.0,30.07,NW,315,2.0,4.0,41,0.00,,,0.00,,2013-03-30 21:02:00,
2013-03-30 17:12:00,67.0,43.0,30.07,NW,315,2.0,4.0,41,0.00,,,0.00,,2013-03-30 21:12:00,
2013-03-30 17:23:00,66.0,40.0,30.07,South,191,2.0,7.0,38,0.00,,,0.00,,2013-03-30 21:23:00,
2013-03-30 17:34:00,67.0,41.0,30.07,NW,304,1.0,8.0,39,0.00,,,0.00,,2013-03-30 21:34:00,
2013-03-30 17:43:00,67.0,41.0,30.07,NW,304,1.0,8.0,39,0.00,,,0.00,,2013-03-30 21:43:00,
2013-03-30 17:53:00,66.0,40.0,30.06,SSW,212,4.0,8.0,39,0.00,,,0.00,,2013-03-30 21:53:00,
2013-03-30 18:03:00,65.0,40.0,30.06,South,188,5.0,10.0,40,0.00,,,0.00,,2013-03-30 22:03:00,
2013-03-30 18:13:00,65.0,40.0,30.06,South,188,5.0,10.0,40,0.00,,,0.00,,2013-03-30 22:13:00,
2013-03-30 18:23:00,66.0,42.0,30.06,WSW,239,2.0,8.0,42,0.00,,,0.00,,2013-03-30 22:23:00,
2013-03-30 18:33:00,65.0,41.0,30.06,South,177,4.0,7.0,41,0.00,,,0.00,,2013-03-30 22:33:00,
2013-03-30 18:43:00,65.0,41.0,30.06,South,177,4.0,7.0,41,0.00,,,0.00,,2013-03-30 22:43:00,
2013-03-30 18:54:00,65.0,40.0,30.06,SSW,202,3.0,7.0,40,0.00,,,0.00,,2013-03-30 22:54:00,
2013-03-30 19:02:00,64.0,42.0,30.06,SW,222,2.0,6.0,44,0.00,,,0.00,,2013-03-30 23:02:00,
2013-03-30 19:13:00,64.0,42.0,30.06,SW,222,2.0,6.0,44,0.00,,,0.00,,2013-03-30 23:13:00,
2013-03-30 19:22:00,64.0,40.0,30.05,SSW,207,3.0,7.0,42,0.00,,,0.00,,2013-03-30 23:22:00,
2013-03-30 19:33:00,63.0,41.0,30.05,SSW,208,2.0,5.0,44,0.00,,,0.00,,2013-03-30 23:33:00,
2013-03-30 19:42:00,63.0,41.0,30.05,SSW,208,2.0,5.0,44,0.00,,,0.00,,2013-03-30 23:42:00,
2013-03-30 19:53:00,62.0,42.0,30.05,SSE,159,0.0,3.0,47,0.00,,,0.00,,2013-03-30 23:53:00,
2013-03-30 20:03:00,61.0,42.0,30.05,South,182,0.0,2.0,49,0.00,,,0.00,,2013-03-31 00:03:00,
2013-03-30 20:12:00,61.0,42.0,30.05,South,182,0.0,2.0,49,0.00,,,0.00,,2013-03-31 00:12:00,
2013-03-30 20:22:00,60.0,42.0,30.04,South,182,0.0,1.0,51,0.00,,,0.00,,2013-03-31 00:22:00,
2013-03-30 20:32:00,59.0,42.0,30.04,South,182,0.0,1.0,54,0.00,,,0.00,,2013-03-31 00:32:00,
2013-03-30 20:42:00,59.0,42.0,30.04,South,182,0.0,1.0,54,0.00,,,0.00,,2013-03-31 00:42:00,
2013-03-30 20:53:00,58.0,42.0,30.04,South,182,0.0,0.0,56,0.00,,,0.00,,2013-03-31 00:53:00,
2013-03-30 21:02:00,57.0,43.0,30.04,South,182,0.0,0.0,59,0.00,,,0.00,,2013-03-31 01:02:00,
2013-03-30 21:12:00,57.0,43.0,30.04,South,182,0.0,0.0,59,0.00,,,0.00,,2013-03-31 01:12:00,
2013-03-30 21:22:00,56.0,43.0,30.04,South,182,0.0,0.0,61,0.00,,,0.00,,2013-03-31 01:22:00,
2013-03-30 21:32:00,55.0,43.0,30.03,South,182,0.0,0.0,64,0.00,,,0.00,,2013-03-31 01:32:00,
2013-03-30 21:42:00,55.0,43.0,30.03,South,182,0.0,0.0,64,0.00,,,0.00,,2013-03-31 01:42:00,
2013-03-30 21:53:00,55.0,43.0,30.03,South,182,0.0,0.0,64,0.00,,,0.00,,2013-03-31 01:53:00,
2013-03-30 22:02:00,54.0,42.0,30.04,South,182,0.0,0.0,64,0.00,,,0.00,,2013-03-31 02:02:00,
2013-03-30 22:13:00,54.0,42.0,30.04,South,182,0.0,0.0,64,0.00,,,0.00,,2013-03-31 02:13:00,
2013-03-30 22:22:00,54.0,42.0,30.03,South,182,0.0,0.0,64,0.00,,,0.00,,2013-03-31 02:22:00,
2013-03-30 22:32:00,54.0,43.0,30.03,South,182,0.0,0.0,66,0.00,,,0.00,,2013-03-31 02:32:00,
2013-03-30 22:43:00,54.0,43.0,30.03,South,182,0.0,0.0,66,0.00,,,0.00,,2013-03-31 02:43:00,
2013-03-30 22:52:00,55.0,44.0,30.03,South,182,0.0,1.0,66,0.00,,,0.00,,2013-03-31 02:52:00,
2013-03-30 23:02:00,56.0,44.0,30.03,South,182,0.0,2.0,64,0.00,,,0.00,,2013-03-31 03:02:00,
2013-03-30 23:13:00,56.0,44.0,30.03,South,182,0.0,2.0,64,0.00,,,0.00,,2013-03-31 03:13:00,
2013-03-30 23:22:00,57.0,45.0,30.04,South,182,0.0,1.0,63,0.00,,,0.00,,2013-03-31 03:22:00,
2013-03-30 23:33:00,57.0,43.0,30.05,South,182,0.0,3.0,59,0.00,,,0.00,,2013-03-31 03:33:00,
2013-03-30 23:43:00,57.0,43.0,30.05,South,182,0.0,3.0,59,0.00,,,0.00,,2013-03-31 03:43:00,
2013-03-30 23:54:00,57.0,46.0,30.05,WNW,296,0.0,5.0,66,0.00,,,0.00,,2013-03-31 03:54:00,